Vorticity
2 2 1 3 6 5 5 5 6 7 7 5 4 4 3 2 3 3 3 5 5 6 14 6 2 3 3 3 4 6 5 9 16 15 13 9 7 7 6 9 11 10 10 10 11 10 16 10 7
1 3 4 3 4 5 4 6 8 7 7 7 6 6 6 3 3 4 3 2 3 5 5 8 14 5 2 3 3 3 3 5 6 6 7 7 9 9 10 7 6 7 9 6 6 10 9 12 12
3 4 6 6 6 5 6 7 4 5 8 8 7 7 7 8 8 8 7 6 3 2 4 5 4 8 14 7 3 3 4 4 3 2 3 5 6 6 6 8 7 6 7 8 7 8 9 9 8
4 4 4 5 7 4 9 4 2 2 4 8 6 7 9 9 8 8 7 7 9 6 3 3 3 4 3 8 11 7 3 3 4 3 4 4 3 2 4 5 6 8 6 4 5 6 6 5 5
3 4 4 6 6 6 6 3 3 0 3 3 3 2 2 4 4 3 4 5 6 7 7 6 4 3 4 5 4 9 10 8 5 3 4 4 3 4 4 3 3 4 5 7 6 5 5 5 6
1 3 6 7 7 6 4 4 3 2 -2 6 7 5 4 3 2 4 5 5 7 7 7 7 7 5 4 3 3 5 5 5 8 10 8 5 3 3 3 2 3 4 3 4 5 6 5 5 5
1 3 6 8 8 7 4 4 3 3 1 8 14 13 10 7 4 4 5 5 5 7 10 10 10 9 7 5 4 2 2 3 5 5 5 8 11 9 5 3 3 3 2 3 4 4 5 4 5
1 2 8 8 7 4 5 4 6 5 7 10 5 6 9 12 12 7 6 5 5 4 3 4 6 7 10 11 9 7 4 2 2 2 3 4 5 5 8 12 8 4 3 4 3 3 3 5 5
2 3 11 9 6 3 3 2 2 2 6 9 6 4 6 7 8 11 11 8 6 5 4 3 2 3 3 4 5 9 10 7 4 2 1 1 1 2 5 5 6 9 11 7 4 4 4 4 4
1 3 11 12 7 4 3 2 4 3 7 6 3 4 6 6 5 -0 6 8 7 8 6 4 3 3 2 3 3 2 4 7 8 7 5 3 3 2 1 1 3 5 5 6 10 10 8 5 4
2 6 12 7 4 4 5 4 5 3 5 7 6 6 6 2 4 7 7 5 7 9 8 8 7 6 4 4 3 3 4 3 4 6 9 9 7 5 4 4 1 1 1 3 5 6 7 9 9
12 14 7 1 6 8 7 5 4 2 4 6 6 6 6 6 6 4 7 8 3 6 8 8 8 9 8 8 9 6 3 3 4 4 5 8 10 11 9 6 7 5 3 2 0 2 3 4 5
14 8 1 2 6 5 7 6 5 3 4 7 5 6 9 4 4 7 7 5 6 8 8 10 7 9 8 7 7 7 10 6 4 4 5 4 3 7 10 10 8 7 8 7 6 4 1 1 2
4 3 2 5 5 8 6 4 4 6 6 9 6 8 5 -0 7 4 7 10 6 6 8 9 10 9 9 11 7 7 8 6 10 7 3 5 4 3 2 5 8 9 8 7 8 8 8 6 2
6 6 7 7 6 4 6 8 7 8 7 6 5 5 4 2 4 6 5 9 9 7 6 7 8 8 8 7 8 10 9 10 8 7 8 6 4 4 3 3 3 3 5 7 6 5 5 7 8
9 7 8 9 7 7 8 8 5 5 4 4 2 3 3 5 5 7 10 9 6 5 3 5 5 6 11 9 7 7 8 9 10 11 8 8 8 7 6 4 3 4 4 4 4 6 6 5 5
9 7 8 6 5 5 5 8 5 5 5 4 5 8 8 10 10 8 7 6 5 4 3 4 5 7 7 11 12 9 7 8 7 7 8 9 9 8 8 7 7 4 3 4 5 4 5 6 6
5 3 4 7 9 7 5 4 4 5 5 8 7 6 9 8 6 5 7 6 6 6 6 6 7 8 5 3 6 8 10 10 10 9 7 7 7 8 10 9 11 13 13 10 5 7 8 6 7
4 4 1 6 9 10 11 9 8 14 11 8 5 8 9 8 11 7 6 6 4 5 6 7 7 5 3 3 6 6 4 4 4 6 10 7 5 5 5 4 5 5 5 5 8 11 9 8 9
3 3 9 12 13 4 12 10 9 2 6 7 7 10 8 6 6 5 7 6 6 8 7 7 8 8 7 8 6 5 9 7 5 7 6 5 7 10 8 5 5 5 6 6 9 7 6 9 6
6 14 10 6 7 4 -2 8 5 3 7 8 9 9 8 5 5 6 6 7 9 11 10 9 6 6 6 7 9 9 8 6 8 4 7 7 5 4 6 8 7 7 7 8 8 6 8 9 9
12 9 6 6 1 6 0 6 3 2 9 9 9 7 6 8 7 8 8 8 8 -1 -3 -1 1 4 5 2 3 1 2 2 3 8 10 6 6 4 4 4 4 4 6 9 9 12 7 3 2
5 7 6 3 1 1 13 6 10 12 11 9 6 10 9 8 9 8 3 5 11 -2 -7 0 8 12 10 10 10 12 10 8 6 5 5 8 12 6 3 2 2 3 2 -1 1 0 5 10 13
8 8 3 3 4 8 9 4 2 5 8 4 2 2 1 3 7 6 2 0 -1 2 3 5 9 13 10 10 11 6 6 8 7 5 4 6 5 8 12 7 7 8 3 0 1 2 -1 -0 -0
6 4 3 3 4 10 5 5 5 4 -1 3 2 4 5 6 5 3 5 5 5 9 13 13 11 10 10 14 9 6 9 10 8 10 6 5 7 7 8 6 4 1 5 2 7 4 9 6 9
5 6 4 6 8 7 6 -5 3 7 4 9 10 10 8 6 6 7 8 8 11 11 11 10 7 7 10 11 9 8 12 6 6 9 5 6 7 6 4 -4 6 10 7 4 4 -3 4 8 8
8 7 10 7 2 3 2 1 -0 7 8 11 12 9 8 5 6 8 7 6 4 5 6 4 7 7 7 6 12 10 13 4 -2 7 5 9 8 12 6 12 1 8 6 8 5 1 5 4 4
9 6 8 5 3 0 -0 2 8 6 5 -0 4 5 6 5 6 8 7 7 8 8 7 8 9 10 9 10 4 7 7 14 12 14 15 12 11 11 8 7 6 6 8 9 10 8 9 3 2
3 6 9 5 0 5 5 -1 9 8 5 8 11 11 10 11 5 7 7 5 6 5 6 7 10 11 11 9 8 9 8 6 4 4 5 5 5 5 5 6 9 10 10 9 8 8 8 10 11
3 5 7 5 8 5 6 -6 9 11 17 9 8 9 9 8 8 7 6 8 9 10 12 15 14 10 10 9 7 6 7 8 7 5 5 6 8 9 10 9 9 10 11 12 13 13 12 12 11
Height
5873 5873 5873 5872 5874 5872 5871 5872 5871 5870 5869 5868 5868 5868 5867 5866 5867 5868 5866 5865 5865 5865 5864 5864 5864 5864 5864 5864 5864 5863 5863 5864 5864 5865 5866 5866 5868 5869 5870 5871 5871 5872 5873 5873 5874 5875 5876 5877 5878
5874 5874 5874 5873 5873 5872 5872 5871 5871 5871 5870 5869 5868 5868 5867 5866 5866 5867 5867 5866 5866 5866 5865 5865 5864 5864 5864 5864 5865 5865 5865 5865 5865 5866 5866 5866 5867 5868 5869 5869 5870 5870 5871 5871 5872 5872 5873 5874 5875
5875 5875 5875 5874 5873 5872 5871 5871 5871 5871 5870 5869 5868 5867 5867 5867 5866 5866 5867 5867 5866 5866 5866 5865 5865 5865 5864 5864 5864 5864 5864 5865 5865 5865 5865 5866 5866 5866 5867 5868 5868 5869 5870 5870 5871 5871 5871 5872 5873
5875 5876 5876 5874 5872 5872 5872 5871 5870 5870 5870 5869 5868 5868 5868 5867 5866 5866 5865 5865 5866 5866 5865 5865 5864 5864 5864 5864 5864 5864 5864 5864 5863 5864 5864 5864 5864 5865 5865 5865 5866 5866 5867 5867 5868 5868 5869 5869 5870
5874 5874 5874 5872 5871 5870 5870 5870 5870 5869 5869 5869 5869 5870 5869 5867 5866 5865 5864 5864 5864 5864 5863 5864 5864 5863 5863 5863 5863 5863 5863 5862 5862 5862 5862 5863 5863 5863 5863 5863 5863 5864 5864 5865 5865 5866 5866 5866 5866
5873 5872 5872 5872 5870 5869 5869 5869 5870 5869 5868 5867 5868 5869 5869 5867 5866 5865 5864 5863 5863 5862 5862 5862 5862 5862 5862 5862 5862 5862 5862 5861 5861 5861 5861 5861 5861 5861 5861 5861 5862 5862 5862 5862 5863 5863 5863 5863 5863
5871 5871 5871 5871 5870 5868 5868 5867 5867 5867 5866 5865 5867 5867 5867 5867 5866 5865 5864 5864 5863 5863 5862 5861 5860 5860 5860 5859 5859 5859 5859 5859 5859 5859 5859 5859 5859 5858 5859 5858 5858 5859 5859 5859 5859 5860 5860 5860 5860
5869 5869 5868 5868 5868 5868 5867 5866 5865 5864 5864 5864 5864 5865 5865 5865 5864 5863 5862 5862 5861 5861 5861 5859 5859 5858 5858 5857 5857 5857 5856 5856 5856 5856 5855 5856 5856 5855 5856 5855 5855 5855 5855 5855 5855 5855 5856 5856 5857
5867 5867 5866 5865 5865 5865 5865 5864 5863 5862 5860 5862 5862 5862 5862 5862 5861 5860 5859 5859 5858 5857 5856 5856 5856 5855 5855 5854 5854 5853 5853 5853 5853 5852 5852 5852 5852 5851 5851 5852 5851 5851 5851 5851 5852 5852 5851 5852 5853
5864 5864 5863 5863 5862 5862 5862 5862 5861 5861 5860 5860 5859 5860 5859 5859 5859 5858 5856 5855 5854 5853 5853 5852 5851 5851 5851 5850 5850 5849 5848 5848 5848 5848 5848 5849 5849 5848 5847 5847 5847 5846 5847 5847 5847 5847 5847 5847 5848
5860 5859 5859 5859 5860 5860 5860 5859 5858 5857 5858 5858 5857 5855 5855 5855 5855 5854 5853 5852 5851 5850 5849 5848 5847 5847 5847 5846 5846 5845 5844 5844 5843 5843 5843 5843 5843 5843 5842 5842 5843 5842 5842 5842 5842 5842 5843 5842 5842
5856 5855 5855 5855 5856 5856 5856 5855 5854 5853 5854 5853 5853 5853 5851 5850 5849 5848 5848 5848 5847 5847 5846 5845 5844 5842 5841 5841 5841 5841 5840 5839 5839 5838 5838 5838 5838 5837 5836 5836 5837 5837 5836 5836 5836 5836 5837 5837 5837
5851 5850 5850 5850 5850 5851 5851 5851 5849 5847 5848 5848 5847 5848 5848 5847 5845 5843 5842 5842 5842 5842 5842 5841 5840 5838 5837 5835 5834 5834 5834 5834 5833 5832 5832 5832 5831 5831 5831 5830 5829 5829 5829 5829 5829 5829 5829 5830 5830
5848 5847 5846 5845 5844 5846 5847 5846 5843 5843 5843 5842 5842 5842 5842 5842 5840 5839 5837 5836 5836 5835 5834 5833 5833 5832 5831 5830 5828 5827 5826 5826 5826 5826 5825 5825 5824 5823 5823 5824 5823 5822 5821 5821 5821 5821 5821 5822 5821
5842 5843 5843 5841 5840 5840 5841 5842 5838 5838 5837 5838 5838 5837 5836 5836 5834 5833 5832 5830 5830 5830 5829 5828 5826 5824 5824 5823 5822 5820 5819 5818 5817 5816 5817 5817 5817 5816 5815 5813 5813 5813 5812 5813 5813 5813 5813 5813 5813
5835 5836 5837 5837 5836 5834 5835 5838 5833 5832 5831 5831 5831 5831 5830 5828 5826 5826 5827 5826 5826 5825 5824 5824 5821 5820 5818 5816 5814 5812 5810 5810 5810 5808 5808 5807 5807 5807 5808 5807 5805 5804 5803 5803 5802 5802 5803 5802 5803
5829 5829 5831 5831 5830 5827 5826 5831 5829 5826 5826 5825 5824 5823 5822 5822 5821 5819 5818 5819 5819 5819 5818 5816 5815 5813 5811 5809 5808 5806 5804 5802 5800 5800 5798 5797 5797 5797 5797 5796 5796 5795 5794 5793 5791 5791 5791 5791 5792
5821 5822 5823 5825 5823 5819 5818 5819 5824 5821 5821 5819 5817 5817 5816 5816 5815 5813 5812 5811 5810 5811 5810 5809 5808 5806 5804 5802 5800 5798 5798 5796 5793 5791 5790 5790 5787 5786 5786 5785 5784 5784 5782 5781 5780 5780 5780 5780 5780
5814 5814 5814 5818 5814 5812 5813 5811 5814 5815 5815 5814 5812 5812 5811 5809 5809 5808 5805 5804 5802 5802 5802 5801 5799 5798 5798 5796 5793 5791 5788 5787 5785 5784 5781 5779 5778 5777 5774 5774 5773 5772 5771 5770 5769 5767 5767 5767 5767
5806 5805 5807 5806 5805 5803 5804 5803 5806 5805 5804 5803 5803 5802 5802 5801 5799 5799 5799 5797 5796 5793 5793 5791 5790 5789 5788 5786 5784 5781 5780 5776 5773 5772 5771 5769 5766 5764 5763 5762 5760 5759 5758 5757 5756 5755 5754 5753 5753
5797 5798 5797 5796 5796 5794 5793 5792 5797 5796 5794 5792 5793 5792 5792 5792 5791 5789 5788 5788 5787 5785 5782 5782 5780 5778 5776 5774 5773 5772 5770 5767 5765 5762 5760 5758 5756 5752 5750 5748 5746 5745 5745 5744 5743 5742 5741 5740 5738
5790 5791 5789 5788 5786 5786 5787 5785 5785 5788 5785 5785 5784 5784 5784 5782 5781 5780 5779 5778 5776 5773 5771 5769 5767 5766 5765 5762 5760 5759 5757 5754 5752 5750 5747 5745 5742 5739 5737 5735 5732 5731 5729 5728 5727 5726 5725 5724 5724
5782 5781 5780 5778 5777 5776 5778 5778 5776 5778 5779 5778 5776 5774 5773 5773 5771 5769 5768 5766 5763 5762 5759 5756 5754 5752 5750 5748 5745 5742 5740 5739 5736 5734 5732 5730 5728 5725 5723 5721 5718 5717 5714 5711 5711 5711 5711 5709 5707
5771 5770 5769 5768 5768 5766 5772 5769 5764 5765 5766 5766 5765 5765 5765 5764 5761 5757 5756 5753 5749 5747 5744 5742 5739 5738 5736 5734 5732 5730 5728 5724 5722 5719 5716 5712 5710 5708 5707 5704 5703 5701 5699 5697 5695 5693 5693 5692 5691
5760 5759 5758 5757 5759 5758 5757 5756 5757 5755 5754 5753 5753 5752 5750 5748 5746 5741 5738 5736 5733 5729 5726 5724 5722 5721 5719 5718 5715 5713 5710 5707 5705 5701 5698 5696 5693 5690 5686 5684 5683 5681 5680 5678 5677 5675 5673 5672 5670
5751 5751 5751 5749 5746 5747 5747 5745 5745 5743 5742 5742 5741 5741 5738 5735 5732 5727 5723 5720 5717 5713 5710 5707 5706 5705 5703 5700 5698 5695 5692 5689 5686 5683 5680 5677 5675 5672 5668 5664 5661 5658 5657 5656 5654 5653 5651 5650 5649
5741 5741 5742 5738 5738 5736 5736 5733 5734 5731 5730 5730 5729 5726 5725 5723 5719 5714 5710 5705 5702 5699 5696 5693 5691 5688 5685 5682 5679 5676 5674 5672 5669 5666 5663 5659 5655 5652 5650 5646 5642 5638 5636 5634 5631 5628 5627 5626 5624
5731 5733 5731 5731 5728 5724 5725 5724 5720 5720 5719 5716 5714 5712 5711 5709 5705 5700 5695 5691 5687 5683 5680 5676 5673 5670 5668 5666 5663 5661 5657 5654 5650 5647 5644 5642 5638 5634 5631 5627 5623 5619 5616 5613 5610 5607 5604 5602 5600
5718 5717 5718 5718 5713 5710 5712 5710 5705 5706 5707 5702 5698 5698 5694 5691 5687 5683 5678 5675 5672 5667 5663 5661 5658 5655 5651 5647 5644 5642 5639 5636 5632 5628 5625 5621 5617 5614 5610 5606 5602 5598 5594 5590 5588 5585 5582 5581 5578
5705 5707 5706 5701 5702 5698 5693 5698 5695 5696 5692 5689 5686 5681 5678 5675 5670 5667 5664 5661 5657 5652 5647 5643 5639 5636 5633 5630 5628 5624 5621 5617 5612 5608 5605 5601 5596 5592 5587 5582 5577 5572 5568 5564 5560 5558 5554 5552 5551